TimeMST,TemperatureF,Dew PointF,Humidity,Sea Level PressureIn,VisibilityMPH,Wind Direction,Wind SpeedMPH,Gust SpeedMPH,PrecipitationIn,Events,Conditions,WindDirDegrees,DateUTC
12:15 AM,53.4,53.4,100,30.13,7.0,NNW,16.1,20.7,N/A,Rain-Thunderstorm,Light Thunderstorms and Rain,330,2013-11-22 07:15:00
12:35 AM,51.1,51.1,100,30.15,7.0,NNW,12.7,17.3,N/A,Rain-Thunderstorm,Light Thunderstorms and Rain,340,2013-11-22 07:35:00
12:55 AM,49.5,49.5,100,30.17,1.2,NNW,13.8,19.6,0.40,Rain-Thunderstorm,Heavy Thunderstorms and Rain,340,2013-11-22 07:55:00
1:15 AM,47.7,47.7,100,30.17,5.0,NNW,10.4,24.2,0.10,Rain-Thunderstorm,Rain,330,2013-11-22 08:15:00
1:35 AM,46.9,46.9,100,30.19,7.0,NNW,15.0,21.9,0.10,,Overcast,340,2013-11-22 08:35:00
1:55 AM,45.7,45.7,100,30.20,7.0,NNW,13.8,17.3,0.10,Thunderstorm,Overcast,340,2013-11-22 08:55:00
2:15 AM,45.0,45.0,100,30.20,7.0,NNW,12.7,20.7,0.01,Rain,Light Rain,340,2013-11-22 09:15:00
2:35 AM,44.1,44.1,100,30.21,5.0,NNW,11.5,18.4,0.03,Rain,Heavy Rain,340,2013-11-22 09:35:00
2:55 AM,43.5,43.5,100,30.22,7.0,NNW,10.4,21.9,0.03,Rain,Rain,340,2013-11-22 09:55:00
3:15 AM,43.2,43.2,100,30.24,5.0,NNW,13.8,20.7,0.03,Rain,Rain,340,2013-11-22 10:15:00
3:35 AM,42.1,42.1,100,30.24,7.0,NNW,12.7,20.7,0.03,Thunderstorm,Unknown,340,2013-11-22 10:35:00
3:55 AM,41.9,41.9,100,30.24,7.0,NNW,13.8,23.0,0.03,Thunderstorm,Thunderstorm,340,2013-11-22 10:55:00
4:15 AM,41.0,41.0,100,30.24,7.0,North,17.3,25.3,N/A,Thunderstorm,Thunderstorm,350,2013-11-22 11:15:00
4:35 AM,40.8,40.8,100,30.25,7.0,North,9.2,16.1,N/A,,Overcast,360,2013-11-22 11:35:00
4:55 AM,40.6,40.6,100,30.27,7.0,NNW,12.7,17.3,N/A,,Overcast,340,2013-11-22 11:55:00
5:15 AM,40.3,40.3,100,30.27,7.0,NNW,13.8,19.6,N/A,,Overcast,340,2013-11-22 12:15:00
5:35 AM,40.1,40.1,100,30.28,7.0,NNW,10.4,-,N/A,,Overcast,340,2013-11-22 12:35:00
5:55 AM,39.7,39.7,100,30.29,7.0,North,11.5,18.4,N/A,,Overcast,360,2013-11-22 12:55:00
6:15 AM,39.2,39.2,100,30.30,7.0,NNW,12.7,19.6,N/A,,Light Drizzle,340,2013-11-22 13:15:00
6:35 AM,39.2,39.2,100,30.31,4.0,North,11.5,19.6,N/A,Thunderstorm,Unknown,360,2013-11-22 13:35:00
6:55 AM,38.7,38.7,100,30.32,4.0,NNW,10.4,-,N/A,,Drizzle,330,2013-11-22 13:55:00
7:15 AM,38.3,38.3,100,30.34,2.5,NNW,15.0,19.6,N/A,,Drizzle,340,2013-11-22 14:15:00
7:35 AM,38.1,38.1,100,30.35,2.5,North,13.8,20.7,N/A,,Drizzle,350,2013-11-22 14:35:00
7:55 AM,37.6,37.6,100,30.36,3.0,North,13.8,23.0,N/A,,Light Drizzle,350,2013-11-22 14:55:00
8:15 AM,38.1,38.1,100,30.37,3.0,North,11.5,17.3,N/A,,Light Drizzle,350,2013-11-22 15:15:00
8:35 AM,38.1,38.1,100,30.37,2.5,North,10.4,23.0,N/A,Rain,Light Rain,350,2013-11-22 15:35:00
8:55 AM,37.8,37.8,100,30.37,3.0,North,11.5,20.7,N/A,,Light Drizzle,10,2013-11-22 15:55:00
9:15 AM,37.8,37.8,100,30.37,2.5,NNW,13.8,17.3,N/A,,Drizzle,340,2013-11-22 16:15:00
9:35 AM,37.6,37.6,100,30.37,4.0,NNW,12.7,18.4,N/A,Rain,Light Rain,340,2013-11-22 16:35:00
9:55 AM,37.4,37.4,100,30.37,5.0,NNW,16.1,19.6,N/A,,Overcast,330,2013-11-22 16:55:00
10:15 AM,36.5,36.5,100,30.39,7.0,NNW,15.0,19.6,N/A,,Overcast,330,2013-11-22 17:15:00
10:35 AM,36.5,36.5,100,30.39,10.0,North,13.8,21.9,N/A,,Overcast,350,2013-11-22 17:35:00
10:55 AM,36.1,36.1,100,30.39,7.0,North,13.8,23.0,N/A,,Overcast,350,2013-11-22 17:55:00
11:15 AM,36.1,36.1,100,30.37,7.0,NNW,13.8,20.7,N/A,,Overcast,340,2013-11-22 18:15:00
11:35 AM,35.8,35.8,100,30.36,5.0,NNW,16.1,21.9,N/A,,Overcast,330,2013-11-22 18:35:00
11:55 AM,35.6,35.6,100,30.36,5.0,NNW,16.1,20.7,N/A,,Overcast,330,2013-11-22 18:55:00
12:15 PM,35.6,35.6,100,30.35,7.0,NNW,11.5,19.6,N/A,,Overcast,340,2013-11-22 19:15:00
12:35 PM,35.2,35.2,100,30.34,7.0,NNW,16.1,23.0,N/A,,Overcast,330,2013-11-22 19:35:00
12:55 PM,35.1,35.1,100,30.33,4.0,NNW,13.8,23.0,N/A,,Overcast,340,2013-11-22 19:55:00
1:15 PM,34.7,34.7,100,30.34,3.0,NNW,13.8,19.6,N/A,,Overcast,330,2013-11-22 20:15:00
1:35 PM,34.7,34.7,100,30.34,3.0,NNW,10.4,17.3,N/A,,Light Drizzle,340,2013-11-22 20:35:00
1:55 PM,34.5,34.5,100,30.34,4.0,NNW,12.7,18.4,N/A,,Light Drizzle,340,2013-11-22 20:55:00
2:15 PM,34.9,34.9,100,30.33,5.0,NNW,11.5,20.7,N/A,Rain,Light Rain,340,2013-11-22 21:15:00
2:35 PM,35.1,35.1,100,30.34,5.0,NNW,9.2,19.6,N/A,,Light Drizzle,340,2013-11-22 21:35:00
2:55 PM,34.5,34.5,100,30.34,5.0,NNW,10.4,20.7,N/A,,Light Drizzle,330,2013-11-22 21:55:00
3:15 PM,33.8,33.8,100,30.35,7.0,NNW,16.1,23.0,N/A,Rain,Light Rain,330,2013-11-22 22:15:00
3:35 PM,33.3,33.3,100,30.36,2.0,NNW,13.8,23.0,0.04,Rain,Light Rain,330,2013-11-22 22:35:00
3:55 PM,33.4,33.4,100,30.36,2.5,NNW,13.8,20.7,0.07,Rain,Rain,340,2013-11-22 22:55:00
4:15 PM,33.6,33.6,100,30.37,7.0,NNW,12.7,24.2,N/A,Rain,Light Rain,330,2013-11-22 23:15:00
4:35 PM,33.4,33.4,100,30.37,10.0,NNW,13.8,19.6,N/A,,Light Drizzle,330,2013-11-22 23:35:00
4:55 PM,33.8,33.8,100,30.38,10.0,NNW,13.8,17.3,N/A,,Overcast,340,2013-11-22 23:55:00
5:15 PM,33.6,33.6,100,30.39,10.0,NNW,11.5,20.7,N/A,,Overcast,330,2013-11-23 00:15:00
5:35 PM,33.3,33.3,100,30.38,4.0,NNW,11.5,20.7,0.05,Rain,Light Rain,340,2013-11-23 00:35:00
5:55 PM,33.4,33.4,100,30.39,10.0,NNW,13.8,23.0,0.05,,Light Drizzle,330,2013-11-23 00:55:00
6:15 PM,33.1,33.1,100,30.39,10.0,NNW,11.5,19.6,N/A,,Drizzle,330,2013-11-23 01:15:00
6:35 PM,33.3,33.3,100,30.40,10.0,NNW,12.7,19.6,N/A,,Light Drizzle,330,2013-11-23 01:35:00
6:55 PM,33.1,33.1,100,30.40,4.0,NNW,15.0,21.9,0.01,Rain,Rain,330,2013-11-23 01:55:00
7:15 PM,33.4,33.4,100,30.40,5.0,NNW,12.7,19.6,0.01,Rain,Light Rain,330,2013-11-23 02:15:00
7:35 PM,33.6,33.6,100,30.40,10.0,North,8.1,16.1,0.01,,Overcast,350,2013-11-23 02:35:00
7:55 PM,33.8,33.8,100,30.40,10.0,NNW,8.1,-,0.01,,Overcast,340,2013-11-23 02:55:00
8:15 PM,34.0,34.0,100,30.40,10.0,North,11.5,-,N/A,,Overcast,350,2013-11-23 03:15:00
8:35 PM,34.0,34.0,100,30.40,10.0,North,11.5,18.4,N/A,,Overcast,350,2013-11-23 03:35:00
8:55 PM,34.0,34.0,100,30.41,10.0,North,12.7,19.6,N/A,,Overcast,350,2013-11-23 03:55:00
9:15 PM,34.3,34.3,100,30.41,10.0,NNW,9.2,-,N/A,,Overcast,340,2013-11-23 04:15:00
9:35 PM,34.3,34.3,100,30.41,10.0,North,10.4,-,N/A,,Overcast,350,2013-11-23 04:35:00
9:55 PM,34.5,34.5,100,30.41,10.0,NNW,12.7,16.1,N/A,,Overcast,340,2013-11-23 04:55:00
10:15 PM,34.5,34.5,100,30.41,10.0,NNW,11.5,-,N/A,Rain,Rain,330,2013-11-23 05:15:00
10:35 PM,34.3,34.3,100,30.41,7.0,North,12.7,17.3,N/A,,Overcast,350,2013-11-23 05:35:00
10:55 PM,34.3,34.3,100,30.41,7.0,NNW,10.4,-,N/A,,Overcast,330,2013-11-23 05:55:00
11:15 PM,34.5,34.5,100,30.41,7.0,NNW,8.1,-,N/A,,Overcast,330,2013-11-23 06:15:00
11:35 PM,34.3,34.3,100,30.40,10.0,NNW,12.7,17.3,N/A,,Overcast,330,2013-11-23 06:35:00
11:55 PM,34.7,34.7,100,30.39,5.0,NNW,12.7,17.3,N/A,,Drizzle,340,2013-11-23 06:55:00